Flag for U.S.A. Weather past 2 weeks in Beaumont, Texas, U.S.A.

Now
76 °F

Clear.


Feels Like: 78 °F
Forecast: 63 / 83 °F
Wind: 10 mph from Northeast

Location: Jefferson County Airport

Current Time: Sep 22, 2014 at 11:59:41 PM

Latest Report: Sep 22, 2014 at 10:53 PM


Visibility: 10 mi

Pressure: 30.07 "Hg

Humidity: 60%

Dew point: 61 °F

Location of BeaumontLocation

Historic Weather in Beaumont — Graph

°F

Beaumont temperature yesterday

Maximum temperature yesterday: 90 °F (at 12:53 PM)
Minimum temperature yesterday: 73 °F (at 6:53 AM)
Average temperature yesterday: 81 °F

Past Weeks' High & Low Weather Summary

 TemperatureHumidityPressure
High94 °F (Sep 11, 2:53 PM)97% (Sep 8, 3:53 AM)30.17 "Hg (Sep 8, 3:53 AM)
Low66 °F (Sep 13, 11:53 PM)50% (Sep 21, 3:53 PM)29.86 "Hg (Sep 10, 4:53 PM)
Average79 °F82%29.98 "Hg
* Reported Sep 7 10:53 PM — Sep 22 10:53 PM, Beaumont, Weather by CustomWeather, © 2014

Note: Actual official high and low records may vary slightly from our data, if they occured in-between our weather recording intervals... More about our weather records

Advertising

Beaumont weather history for previous 24 hours

 ConditionsComfort  
Time TempWeatherWind HumidityBarometerVisibility
10:53 PM
Sep 22
76 °FClear.10 mph60%30.07 "Hg10 mi
9:53 PM77 °FClear.10 mph62%30.06 "Hg10 mi
8:53 PM79 °FClear.12 mph62%30.03 "Hg10 mi
7:53 PM80 °FSunny.13 mph60%30.02 "Hg10 mi
6:53 PM83 °FSunny.12 mph57%30.01 "Hg10 mi
5:53 PM86 °FSunny.13 mph55%30.00 "Hg10 mi
4:53 PM88 °FSunny.14 mph55%30.00 "Hg10 mi
3:53 PM89 °FSunny.9 mph59%30.00 "Hg10 mi
2:53 PM89 °FPartly sunny.15 mph59%30.01 "Hg10 mi
1:53 PM90 °FOvercast.10 mph59%30.03 "Hg10 mi
12:53 PM90 °FSunny.10 mph59%30.04 "Hg10 mi
11:53 AM89 °FPassing clouds.12 mph59%30.06 "Hg10 mi
10:53 AM88 °FSunny.5 mph59%30.06 "Hg10 mi
9:53 AM84 °FSunny.7 mph65%30.07 "Hg10 mi
8:53 AM80 °FSunny.10 mph79%30.07 "Hg8 mi
7:53 AM74 °FFog.3 mph94%30.05 "Hg4 mi
6:53 AM72 °FFog.5 mph93%30.04 "Hg5 mi
5:53 AM72 °FFog.3 mph93%30.02 "Hg5 mi
4:53 AM72 °FFog.6 mph93%30.02 "Hg4 mi
3:53 AM73 °FFog.N/A94%30.01 "Hg4 mi
2:53 AM72 °FFog.No wind97%30.02 "Hg4 mi
1:53 AM74 °FClear.No wind91%30.02 "Hg8 mi
12:53 AM75 °FClear.No wind90%30.01 "Hg10 mi
11:53 PM
Sep 21
76 °FClear.3 mph88%30.01 "Hg10 mi
Weather by CustomWeather, © 2014

See weather overviewHow to use our weather pages